Regional Weather Roundup
Issued by NWS

Current Version | Previous Version | Text Only | Print | Product List | Glossary On
Versions: 1 2 3 4 5 6 7 8 9 10 11 12 13 14 15 16 17 18 19 20 21 22 23 24 25 26 27 28 29 30 31 32 33 34 35 36 37 38 39 40 41 42 43 44 45 46 47 48 49 50
000
ASUS42 KTBW 091716
RWRFL
FLORIDA REGIONAL WEATHER ROUNDUP
NATIONAL WEATHER SERVICE TAMPA BAY RUSKIN FL
1200 PM EST TUE FEB 09 2016

NOTE: "FAIR" INDICATES FEW OR NO CLOUDS BELOW 12,000 FEET WITH NO
SIGNIFICANT WEATHER AND/OR OBSTRUCTIONS TO VISIBILITY.


FLZ001>010-012>015-112-114-115-091800-
PANHANDLE FLORIDA

CITY           SKY/WX    TMP DP  RH WIND       PRES   REMARKS
PENSACOLA      SUNNY     49  15  25 NW22G30   30.07F WCI  42
MILTON NAS     SUNNY     46  15  28 NW20G30   30.06  WCI  38
CRESTVIEW      SUNNY     47  16  29 NW20G25   30.05F WCI  40
DUKE FIELD     MOSUNNY   47  15  28 W16G28    30.02F WCI  40
VALPARAISO     MOSUNNY   48  15  26 NW25G33   30.03F WCI  41
MARY ESTHER    SUNNY     48  13  24 NW16G24   30.04F WCI  42
TRI COUNTY     FAIR      49  22  34 W12G17    30.01F WCI  44
PANAMA CITY    FAIR      51  20  29 W21G28    30.01F
TYNDALL AFB    SUNNY     52  27  38 W25       30.03F
APALACHICOLA   MOSUNNY   55  29  36 W23G32    30.02F

STATION/POSITION SKY/WX   TEMP    WIND        PRES    WAVE   SWELL
                          AIR SEA DIR/SP/G            HT/PER HT/PER
                          (F)     (DEG/KT/KT) (MB)    (FT/S) (FT/S)
30.1N   87.6W              47 63  290/ 21/ 27 1018.6F   5/ 5   2/ 8
28.8N   86.0W              56 70  280/ 27/ 33 1018.1F  10/ 9   7/ 9
PANAMA CITY BEAC           48 57  280/ 26/ 29 1017.6F
CAPE SAN BLAS    NOT AVBL
TOWER C          NOT AVBL
28.5N   84.5W              59 67  280/ 25/ 31 1017.3F  11/ 9

$$
FLZ011-016>038-118-127-128-134-139-239-091800-
NORTH FLORIDA

CITY           SKY/WX    TMP DP  RH WIND       PRES   REMARKS
MARIANNA       SUNNY     49  20  31 W18G26    29.99F WCI  42
TALLAHASSEE    MOSUNNY   53  17  24 W20G33    29.99F
PERRY          SUNNY     53  18  24 W23G30    30.01F
LIVE OAK         N/A     52  21  30 W10G24    30.01F
CROSS CITY       N/A     54  24  31 W16G28    30.02F
LAKE CITY      FAIR      50  21  32 W28G33    30.00F WCI  42
GAINESVILLE    SUNNY     53  23  31 W23G35    30.01F
WILLISTON      PTSUNNY   55  28  35 W16       30.04F
KEYSTONE HEIGH   N/A     52  14  22 W24G33    29.99F
PALATKA        FAIR      54  21  28 W21G39    30.00F
MAYPORT NAS    MOSUNNY   50  21  32 W16G30    29.95F WCI  44
JACKSONVILLE   MOSUNNY   50  21  32 W26G44    29.95F WCI  43
JAX NAS        MOSUNNY   52  16  24 W24G38    29.97F
JAX CRAIG      SUNNY     51  17  26 W29G37    29.96F
JAX CECIL      SUNNY     50  18  27 W29G37    29.98F WCI  42
FERNANDINA BEA FAIR      52  18  25 W24G43    29.92F
ST AUGUSTINE   SUNNY     52  18  26 W23G36    29.97F
PALM COAST     SUNNY     54  25  32 W20G29    29.99F

STATION/POSITION SKY/WX   TEMP    WIND        PRES    WAVE   SWELL
                          AIR SEA DIR/SP/G            HT/PER HT/PER
                          (F)     (DEG/KT/KT) (MB)    (FT/S) (FT/S)
SHELL POINT                49     290/ 12/ 18 1015.9
KEATON BEACH     NOT AVBL
CEDAR KEY                  50     310/  9/ 13 1017.6F
FERNANDINA                 47 54  260/ 20/ 24 1014.9R
30.7N   81.3W                 56                N/A     4/ 4   2/18
MAYPORT                    47 56  280/ 21/ 28 1014.7R
31.4N   80.9W              45 55  260/ 23/ 31 1012.4F   5/ 5
ST AUGUSTINE               51 57  260/ 20/ 27 1015.3F

$$
FLZ040-043>046-052-053-057-058-063-144-091800-
INTERIOR CENTRAL FLORIDA

CITY           SKY/WX    TMP DP  RH WIND       PRES   REMARKS
OCALA          MOSUNNY   55  27  33 W17G26    30.02F
THE VILLAGES     N/A     55  32  41 W18G29    29.93F
LEESBURG       PTSUNNY   54  32  43 W17G29    30.04F
SANFORD        PTSUNNY   56  29  35 W20G31    30.02F
ORLANDO EXEC   MOSUNNY   57  31  37 SW14G21   30.02F
ORLANDO INTL   PTSUNNY   55  30  38 W17G26    30.03F
KISSIMMEE      PTSUNNY   55  34  44 W13G18    30.03F
WINTER HAVEN   CLOUDY    55  35  47 W15G22    30.06F
LAKELAND       CLOUDY    54  36  50 W12G17    30.05F
BARTOW         PTSUNNY   54  34  47 W9        30.06F
OKEECHOBEE     SUNNY     59  39  47 W13G20    30.07F

$$
FLZ041-047-054-059-064-141-147-091800-
EAST CENTRAL FLORIDA

CITY           SKY/WX    TMP DP  RH WIND       PRES   REMARKS
ORMOND BEACH   SUNNY     54  27  35 W23G36    30.00F
DAYTONA BEACH  MOSUNNY   55  27  34 W21G32    30.00F
DELAND           N/A     55  27  33 W17G26    30.02F
JFK SPACE CTR  MOSUNNY   56  29  35 W20       30.00F
TITUSVILLE     MOSUNNY   54  25  32 SW21G29   30.03F
CAPE CANAVERAL MOSUNNY   57  30  35 W15G25    30.01F
PATRICK AFB    MOSUNNY   57  31  37 W16       30.02F
MELBOURNE      SUNNY     58  32  37 W17G25    30.03F
VERO BEACH     MOSUNNY   59  34  39 W20G26    30.05F
FT PIERCE      MOSUNNY   56  37  49 W13       30.05F
STUART           N/A    N/A N/A N/A W13G26    30.07F

STATION/POSITION SKY/WX   TEMP    WIND        PRES    WAVE   SWELL
                          AIR SEA DIR/SP/G            HT/PER HT/PER
                          (F)     (DEG/KT/KT) (MB)    (FT/S) (FT/S)
28.5N   80.2W              51 70  290/ 16/ 21 1017.0F
28.9N   78.5W              58 72              1015.2S
TRIDENT PIER               53 63  280/ 11/ 16 1017.1F
28.4N   80.5W                 63                N/A     2/15   2/15
27.5N   80.2W                 71                N/A     4/15   2/15

$$
FLZ050-056-061-142-242-148-248-149-249-151-251-155-255-
160-260-091800-
WEST CENTRAL FLORIDA

CITY           SKY/WX    TMP DP  RH WIND       PRES   REMARKS
CRYSTAL RIVER  CLOUDY    52  32  46 NW13G22   30.05F
INVERNESS      CLOUDY    55  36  47 W7        30.05F HAZE
BROOKSVILLE    CLOUDY    54  34  46 NW16G23   30.06F
ZEPHYRHILLS    FAIR      56  34  42 W14G20    30.06F
CLEARWATER AIR CLOUDY    52  41  66 N10G20    30.06F
ST PETE CLEARW CLOUDY    57  42  57 NW12      30.06F
TAMPA INTL     CLOUDY    56  41  57 NW13      30.07F
TAMPA EXEC     CLOUDY    59  39  47 W7        30.06F
PLANT CITY     CLOUDY    57  41  54 NW14      30.07F
MACDILL AFB    CLOUDY    56  44  65 N8        30.05F
PETER O KNIGHT CLOUDY    59  43  55 W8        30.06F
ST PETERSBURG  NOT AVBL
SARASOTA       CLOUDY    60  43  53 NW18      30.06F
VENICE         PTSUNNY   63  45  51 W23G32    30.08F

STATION/POSITION SKY/WX   TEMP    WIND        PRES    WAVE   SWELL
                          AIR SEA DIR/SP/G            HT/PER HT/PER
                          (F)     (DEG/KT/KT) (MB)    (FT/S) (FT/S)
CEDAR KEY                  50     310/  9/ 13 1017.6F
28.5N   84.5W              59 67  280/ 25/ 31 1017.3F  11/ 9
27.3N   84.2W                 71                N/A    12/11   7/11
CLEARWATER BEACH           55 56  300/ 17/ 23 1018.6R
MIDDLE TAMPA BAY           56     350/ 12/ 17 1018.8S
VENICE                     61 61  290/ 24/ 28 1017.8F

$$
FLZ066-069-070-075>078-162-262-165-265-091800-
SOUTHWEST FLORIDA AND KEYS

CITY           SKY/WX    TMP DP  RH WIND       PRES   REMARKS
PUNTA GORDA    CLOUDY    63  45  51 W17G28    30.08F
FT MYERS       PTSUNNY   63  43  48 W20G30    30.07F
SOUTHWEST INTL PTSUNNY   63  43  48 W17G25    30.07F
NAPLES         CLOUDY    64  48  56 W16       30.09F
MARCO ISLAND   CLOUDY    64  45  48 NW18      30.08F
MARATHON       PTSUNNY   69  53  56 NW14      30.11F
KEY WEST NAS   CLOUDY    69  53  56 NW16      30.12F
KEY WEST INTL  MOSUNNY   68  56  65 NW16G22   30.12F

STATION/POSITION SKY/WX   TEMP    WIND        PRES    WAVE   SWELL
                          AIR SEA DIR/SP/G            HT/PER HT/PER
                          (F)     (DEG/KT/KT) (MB)    (FT/S) (FT/S)
VENICE                     61 61  290/ 24/ 28 1017.8F
NAPLES                        63              1019.2R
26.0N   85.6W              64 79  300/ 19/ 27 1020.8F  10/10   8/10
DRY TORTUGAS                                    N/A
SAND KEY                   66     340/ 17/ 20 1020.4F
LONG KEY                   64 65  340/ 14/ 16 1019.9F
MOLASSES REEF              64 73  300/ 19/ 21 1018.5F

$$
FLZ067-068-071>074-168-172>174-091800-
SOUTHEAST FLORIDA

CITY           SKY/WX    TMP DP  RH WIND       PRES   REMARKS
W PALM BEACH   CLOUDY    59  39  47 W12G20    30.08F
FT LAUDER-EXEC PTSUNNY   60  40  47 NW13G21   30.08F
FT LAUDERDALE  CLOUDY    61  43  51 NW8       30.07F
POMPANO BEACH  PTSUNNY   60  42  51 NW15      30.08F
PEMBROKE PINES PTSUNNY   64  43  46 NW14      30.09F
OPA LOCKA      CLOUDY    63  44  50 W13       30.09F
MIAMI          CLOUDY    62  45  53 NW6       30.08F
WEST KENDALL   PTSUNNY   63  48  58 N9        30.09F
HOMESTEAD      CLOUDY    68  46  45 NW13G23   30.06F

STATION/POSITION SKY/WX   TEMP    WIND        PRES    WAVE   SWELL
                          AIR SEA DIR/SP/G            HT/PER HT/PER
                          (F)     (DEG/KT/KT) (MB)    (FT/S) (FT/S)
PORT EVERGLADES            60     290/ 12/ 18 1018.3F
VIRGINIA KEY               C1F1M1C2F2M2C3F3C4F4M3C5F5M4C6F6M5C7F7M6C8!


USA.gov is the U.S. government's official web portal to all federal, state and local government web resources and services.